Location: Normandy Village
(37.8755°N, 122.2655°W)
Time: 23:18:51
(UTC+00:00)

ATLAS 3B R/B - Pass Details

Date: 08 December 2019
Orbit: 1027 x 1168 km, 63.8° (Epoch: 19 January)

Event Time Altitude Azimuth Distance (km) Brightness Sun altitude
Rises 03:23:22 0° 303° (WNW) 3,829 6.3 -29.6°
Reaches altitude 10° 03:28:47 10° 267° (W) 2,904 5.9 -30.7°
Maximum altitude 03:30:05 11° 256° (WSW) 2,868 5.8 -30.9°
Drops below altitude 10° 03:31:24 10° 245° (WSW) 2,920 5.8 -31.2°
Sets 03:36:58 0° 209° (SSW) 3,912 6.1 -32.3°
